Tracking 19564 objects as of 20-Mar-2019
HD Live streaming from Space Station
objects crossing your sky now

FENGYUN 1C DEB

Track FENGYUN 1C DEB now!
10-day predictions


NORAD ID: 32088
Int'l Code: 1999-025CQE
Perigee: 870.0 km
Apogee: 1,531.8 km
Inclination: 102.4 °
Period: 109.3 minutes
Semi major axis: 7571 km
RCS: 0.0006 m2 (small)
Launch date: May 10, 1999
Source: People's Republic of China (PRC)
Launch site: Taiyaun Space Center, China (TSC)

Note: This is SATELLITE DEBRIS
aabbcc
Your satellite tracking list
Your tracking list is empty




NASA's NSSDC Master Catalog

Two Line Element Set (TLE):
1 32088U 99025CQE 19074.09470126  .00000656  00000-0  11246-2 0  9999
2 32088 102.3906 181.0995 0436977 177.2688 186.7899 13.17633892558887
Source of the keplerian elements: AFSPC